Location: New Frontier Mobile Home Park
(32.8448°N, 116.9675°W)
Time: 22:49:17
(UTC+00:00)

Cosmos 1680 Rocket - Pass Details

Date: 14 July 2020
Orbit: 760 x 781 km, 74.1° (Epoch: 05 August)

Event Time Altitude Azimuth Distance (km) Brightness Sun altitude
Exits shadow 04:22:51 - 188° (S) 2,899 6.2 -15.9°
Reaches altitude 10° 04:24:20 10° 187° (S) 2,322 5.7 -16.1°
Maximum altitude 04:29:35 70° 104° (ESE) 831 3.4 -16.9°
Drops below altitude 10° 04:34:52 10° 22° (NNE) 2,338 6.2 -17.8°
Sets 04:37:16 0° 20° (NNE) 3,269 7.1 -18.1°
